sat.trackr.live / text

‹ back to catalog

ONEWEB-0317

NORAD 49103 · 2021-075AE

PAYLOAD ACTIVE UNKNOWN

§ Identity

Operator
Country
UK
Launch date
2021-08-21
Launch site
TYMSC
Launch vehicle
Mass (kg)
RCS (m²)

Purposes: comms

External: N2YO · Heavens-Above · Gunter

§ Orbital elements

Epoch: 2026-09-19T23:23:33.020736Z

Period
109.72 min
Inclination
87.8978°
Eccentricity
0.0001394
Mean motion
13.12444149 rev/d
Perigee alt
1,212.7 km
Apogee alt
1,214.8 km
Semi-major
7,591.9 km
B*
-3.6438e-5
RAAN
331.8498°
Arg perigee
81.5872°
Mean anomaly
278.5414°
Rev number
24,762

§ Raw data

ONEWEB-03171 49103U 21075AE  26262.97468774  .00000000  00000+0 -36438-4 0  99902 49103  87.8978 331.8498 0001394  81.5872 278.5414 13.12444149247625

JSON: /api/v1/satellites/49103 · /tle

For live sub-satellite position, see the globe view (requires WebGL).

§ Visibility from observer

Set your observer location to see the next 7 days of passes ≥ 10°. The values pass through the URL so the page stays shareable.

No JS? Fill the form by hand. The geolocation button needs JavaScript.